Tiempo atmosférico en la estación meteorológica de Barcelona, Barcelona (25 m.)



Fecha
DESCASC
Temp. máxima en grados centígrados (hora)
DESCASC
Temp. mínima en grados centígrados (hora)
DESCASC
Temp. media en grados centígrados
DESCASC
Racha de viento máxima en m/sg (hora)
DESCASC
Velocidad máxima media en intervalos de 10 minutos(hora)
DESCASC
Precipitaciones diarias en mm
DESCASC
Precipitaciones de 00:00 a 06:00 en mm
DESCASC
Precipitaciones de 06:00 a 12:00 en mm
DESCASC
Precipitaciones de 12:00 a 18:00 en mm
DESCASC
Precipitaciones de 18:00 a 24:00 en mm
DESCASC
17-02-2019 15.1 (12:40) 5.1 (07:30) 10.1 4.72 (05:20) 4.17 (05:20) 0 0 0 0 0
16-02-2019 14.6 (15:40) 4.3 (07:20) 9.5 5.28 (07:30) 3.89 (07:30) 0 0 0 0 0
15-02-2019 14.2 (12:50) 4.1 (07:30) 9.1 7.78 (14:40) 6.39 (14:30) 0 0 0 0 0
14-02-2019 13.3 (12:00) 4.9 (00:00) 9.1 7.78 (17:10) 6.39 (14:10) 0 0 0 0 0
13-02-2019 14.4 (16:00) 5.4 (00:00) 9.9 6.94 (01:40) 5.56 (17:20) 0 0 0 0 0
12-02-2019 14.8 (13:30) 7.6 (00:00) 11.2 8.61 (15:10) 6.67 (14:50) 0 0 0 0 0
11-02-2019 15.9 (15:00) 10.6 (00:00) 13.3 7.78 (01:10) 6.39 (15:30) 0 0 0 0 0
10-02-2019 18 (16:10) 9.6 (00:00) 13.8 13.61 (14:10) 6.94 (14:10) 0 0 0 0 0
09-02-2019 15.2 (12:10) 8.8 (00:00) 12 5.56 (02:50) 3.61 (01:10) 0 0 0 0 0
08-02-2019 15.4 (14:10) 7.8 (00:00) 11.6 10.56 (16:20) 6.67 (15:00) 0 0 0 0 0
07-02-2019 13.6 (16:10) 6.6 (00:00) 10.1 5.28 (14:00) 3.61 (13:10) 0 0 0 0 0
06-02-2019 15.3 (13:40) 7.7 (00:00) 11.5 5.83 (15:30) 5 (15:00) 0 0 0 0 0
05-02-2019 15.7 (13:20) 7.6 (00:00) 11.6 7.5 (14:40) 6.11 (14:40) 0 0 0 0 0
04-02-2019 13.5 (13:30) 5 (00:00) 9.3 8.89 (07:00) 4.72 (07:00) 0 0 0 0 0
03-02-2019 14 (16:10) 5.6 (00:00) 9.8 13.33 (01:00) 7.22 (01:50) 0 0 0 0 0
02-02-2019 13 (16:00) 7.4 (00:00) 10.2 15.28 (16:40) 6.39 (17:30) 0.2 0 0 0.2 0
01-02-2019 15.8 (15:20) 8.7 (00:00) 12.3 15.83 (06:00) 8.89 (06:50) 0.9 0 0.3 0 0.6
31-01-2019 16.8 (16:40) 8.8 (00:00) 12.8 10.28 (16:40) 4.72 (15:10) 0 0 0 0 0
30-01-2019 13.3 (16:10) 6.3 (00:00) 9.8 11.67 (15:00) 6.11 (04:10) 0 0 0 0 0
29-01-2019 10.4 (13:20) 5.4 (00:00) 7.9 11.94 (02:30) 6.11 (02:30) 0 0 0 0 0
28-01-2019 14.4 (16:10) 6.4 (00:00) 10.4 17.22 (14:10) 9.17 (14:10) 0 0 0 0 0
27-01-2019 15.8 (16:10) 7.5 (00:00) 11.7 15.83 (18:30) 8.33 (18:40) 0 0 0 0 0
26-01-2019 15.9 (13:50) 5.7 (00:00) 10.8 8.89 (14:10) 6.67 (14:10) 0 0 0 0 0
25-01-2019 14 (16:20) 3.6 (00:00) 8.8 6.11 (17:30) 5.28 (18:50) 0 0 0 0 0
24-01-2019 13.6 (14:40) 4.5 (00:00) 9.1 15.83 (08:10) 8.89 (08:10) 0 0 0 0 0
23-01-2019 12.4 (15:20) 5.3 (00:00) 8.8 10.56 (21:10) 5 (03:20) 0 0 0 0 0
22-01-2019 10.7 (14:10) 4.2 (00:00) 7.4 8.33 (19:30) 4.44 (19:30) 0 0 0 0 0
21-01-2019 12.3 (15:20) 4.9 (00:00) 8.6 7.22 (08:10) 3.61 (00:30) 0 0 0 0 0
20-01-2019 10.1 (15:10) 6.6 (00:00) 8.4 13.61 (15:30) 11.39 (15:40) 18.2 1.7 16 0.5 0
19-01-2019 13.1 (13:50) 4.7 (00:00) 8.9 5.28 (05:10) 3.06 (04:20) 0 0 0 0 0

Gráficas

Temp. máximas Temp. mínimas Temp. medias Precipitaciones Rachas de viento máximas Velocidades máximas media en intervalos de 10 minutos

Datos horarios

Fecha y hora oficial Temperatura (ºC) Velocidad del viento (km/h) Dirección del viento Racha (km/h) Dirección de racha Precipitación (mm) Presión (hPa) Tendencia (hPa) Humedad (%)
2019-02-17 23:00:00 9.9 6 Norte 10 Norte 0 -- -- 88
2019-02-17 22:00:00 10.4 6 Nordeste 10 Norte 0 -- -- 88
2019-02-17 21:00:00 10.9 2 Oeste 4 Oeste 0 -- -- 86
2019-02-17 20:00:00 11 2 Sudoeste 6 Sudoeste 0 -- -- 85
2019-02-17 19:00:00 11 4 Sudoeste 10 Sudoeste 0 -- -- 85
2019-02-17 18:00:00 11.4 9 Sudoeste 15 Sudoeste 0 -- -- 84
2019-02-17 17:00:00 12.2 12 Sur 17 Sur 0 -- -- 79
2019-02-17 16:00:00 13.1 11 Sur 17 Sur 0 -- -- 73
2019-02-17 15:00:00 13.7 10 Sur 17 Sudeste 0 -- -- 70
2019-02-17 14:00:00 14.2 8 Sur 17 Sudeste 0 -- -- 69
2019-02-17 13:00:00 14.4 9 Sudeste 14 Este 0 -- -- 65
2019-02-17 12:00:00 13.9 7 Este 15 Este 0 -- -- 65
2019-02-17 11:00:00 11.1 6 Norte 13 Norte 0 -- -- 60
2019-02-17 10:00:00 8.4 9 Norte 16 Norte 0 -- -- 61
2019-02-17 09:00:00 5.9 13 Norte 15 Norte 0 -- -- 68
2019-02-17 08:00:00 5.5 12 Norte 16 Norte 0 -- -- 72
2019-02-17 07:00:00 5.4 10 Norte 15 Norte 0 -- -- 72
2019-02-17 06:00:00 5.9 11 Norte 17 Norte 0 -- -- 72
2019-02-17 05:00:00 5.9 13 Norte 16 Norte 0 -- -- 74
2019-02-17 04:00:00 6.4 11 Norte 14 Norte 0 -- -- 76
2019-02-17 03:00:00 7 10 Norte 14 Norte 0 -- -- 78
2019-02-17 02:00:00 6.9 9 Norte 12 Norte 0 -- -- 78
2019-02-17 01:00:00 8 7 Norte 12 Norte 0 -- -- 77
2019-02-17 00:00:00 8.2 8 Norte 10 Norte 0 -- -- 84
2019-02-16 23:00:00 8.9 5 Norte 6 Norte 0 -- -- 88
2019-02-16 22:00:00 10.1 0 Calma 3 Nordeste 0 -- -- 94
2019-02-16 21:00:00 10.3 0 Calma 5 Este 0 -- -- 94
2019-02-16 20:00:00 10.5 3 Este 4 Este 0 -- -- 92
2019-02-16 19:00:00 11.2 3 Sudeste 11 Sur 0 -- -- 90
2019-02-16 18:00:00 12.5 6 Sur 12 Sur 0 -- -- 82
2019-02-16 17:00:00 13.5 5 Sudeste 10 Sudeste 0 -- -- 73
2019-02-16 16:00:00 14.4 5 Sudeste 14 Sudeste 0 -- -- 78
2019-02-16 15:00:00 14.2 10 Sudeste 14 Sudeste 0 -- -- 77
2019-02-16 14:00:00 14 9 Sudeste 13 Sudeste 0 -- -- 74
2019-02-16 13:00:00 13.8 7 Sudeste 14 Este 0 -- -- 76
2019-02-16 12:00:00 12.6 10 Este 14 Este 0 -- -- 65
2019-02-16 11:00:00 10.6 9 Nordeste 15 Norte 0 -- -- 49
2019-02-16 10:00:00 8.4 7 Norte 16 Norte 0 -- -- 57
2019-02-16 09:00:00 6.6 11 Norte 19 Norte 0 -- -- 62
2019-02-16 08:00:00 5 13 Norte 19 Norte 0 -- -- 67
2019-02-16 07:00:00 4.9 9 Norte 18 Norte 0 -- -- 66
2019-02-16 06:00:00 4.6 10 Norte 16 Norte 0 -- -- 70
2019-02-16 05:00:00 5.5 8 Norte 12 Norte 0 -- -- 70
2019-02-16 04:00:00 5.9 5 Norte 10 Norte 0 -- -- 70
2019-02-16 03:00:00 6.7 6 Norte 12 Norte 0 -- -- 74
2019-02-16 02:00:00 6.9 7 Norte 12 Norte 0 -- -- 81
2019-02-16 01:00:00 7.8 8 Norte 10 Norte 0 -- -- 84
2019-02-16 00:00:00 8.5 5 Norte 7 Norte 0 -- -- 86
2019-02-15 23:00:00 9.7 2 Sudoeste 8 Sudoeste 0 -- -- 88
2019-02-15 22:00:00 9.9 6 Sudoeste 11 Oeste 0 -- -- 87
2019-02-15 21:00:00 10.3 7 Oeste 13 Oeste 0 -- -- 85
2019-02-15 20:00:00 10.5 9 Oeste 17 Oeste 0 -- -- 84
2019-02-15 19:00:00 10.8 6 Sudoeste 18 Sudoeste 0 -- -- 82
2019-02-15 18:00:00 11.6 15 Sudoeste 20 Sudoeste 0 -- -- 80
2019-02-15 17:00:00 12 15 Sudoeste 24 Sudoeste 0 -- -- 78
2019-02-15 16:00:00 12 20 Sudoeste 27 Sudoeste 0 -- -- 79
2019-02-15 15:00:00 12.1 22 Sudoeste 28 Sudoeste 0 -- -- 77
2019-02-15 14:00:00 12.1 19 Sudoeste 24 Sudoeste 0 -- -- 78
2019-02-15 13:00:00 12.8 17 Sudoeste 21 Sudoeste 0 -- -- 69
2019-02-15 12:00:00 12.3 7 Sur 10 Sur 0 -- -- 65
2019-02-15 11:00:00 11.6 3 Sudeste 9 Nordeste 0 -- -- 60
2019-02-15 10:00:00 8.8 3 Norte 12 Norte 0 -- -- 65
2019-02-15 09:00:00 6 7 Norte 16 Norte 0 -- -- 75
2019-02-15 08:00:00 4.4 12 Norte 17 Norte 0 -- -- 82
2019-02-15 07:00:00 4.6 8 Norte 14 Norte 0 -- -- 82
2019-02-15 06:00:00 5.1 10 Norte 12 Norte 0 -- -- 82
2019-02-15 05:00:00 5.9 5 Norte 10 Norte 0 -- -- 83
2019-02-15 04:00:00 6 6 Norte 10 Norte 0 -- -- 84
2019-02-15 03:00:00 6.7 5 Noroeste 8 Noroeste 0 -- -- 82
2019-02-15 02:00:00 7.2 5 Norte 8 Noroeste 0 -- -- 82
2019-02-15 01:00:00 7.7 5 Norte 9 Norte 0 -- -- 81
2019-02-15 00:00:00 8.5 6 Norte 9 Norte 0 -- -- 78
2019-02-14 23:00:00 9.5 4 Noroeste 13 Oeste 0 -- -- 76
2019-02-14 22:00:00 10 9 Oeste 17 Oeste 0 -- -- 74
2019-02-14 21:00:00 10.1 10 Oeste 19 Oeste 0 -- -- 77
2019-02-14 20:00:00 10.5 11 Oeste 18 Oeste 0 -- -- 76
2019-02-14 19:00:00 10.7 10 Sudoeste 24 Sudoeste 0 -- -- 76
2019-02-14 18:00:00 11.4 17 Sudoeste 28 Sudoeste 0 -- -- 72
2019-02-14 17:00:00 11.8 21 Sudoeste 28 Sudoeste 0 -- -- 71
2019-02-14 16:00:00 12.3 20 Sudoeste 26 Sudoeste 0 -- -- 73
2019-02-14 15:00:00 12.2 21 Sudoeste 27 Sudoeste 0 -- -- 76
2019-02-14 14:00:00 12.2 22 Sudoeste 26 Sudoeste 0 -- -- 77
2019-02-14 13:00:00 12.6 18 Sudoeste 21 Sudoeste 0 -- -- 72
2019-02-14 12:00:00 13.1 10 Sudoeste 18 Sudoeste 0 -- -- 65
2019-02-14 11:00:00 12.2 3 Este 9 Este 0 -- -- 61
2019-02-14 10:00:00 8.9 3 Noroeste 15 Norte 0 -- -- 71
2019-02-14 09:00:00 5.8 12 Norte 18 Norte 0 -- -- 80
2019-02-14 08:00:00 4.9 14 Norte 17 Norte 0 -- -- 84
2019-02-14 07:00:00 5.6 13 Norte 16 Norte 0 -- -- 86
2019-02-14 06:00:00 6.1 12 Norte 15 Norte 0 -- -- 88
2019-02-14 05:00:00 6.5 12 Norte 16 Norte 0 -- -- 88
2019-02-14 04:00:00 7.1 12 Norte 15 Norte 0 -- -- 84
2019-02-14 03:00:00 7.2 11 Norte 16 Norte 0 -- -- 86
2019-02-14 02:00:00 7.5 10 Norte 15 Norte 0 -- -- 86
2019-02-14 01:00:00 8.2 10 Norte 14 Norte 0 -- -- 84
2019-02-14 00:00:00 8.8 8 Norte 12 Norte 0 -- -- 83
2019-02-13 23:00:00 9.9 6 Norte 8 Norte 0 -- -- 81
2019-02-13 22:00:00 11.1 4 Oeste 9 Oeste 0 -- -- 82
2019-02-13 21:00:00 11.1 4 Oeste 16 Oeste 0 -- -- 83
2019-02-13 20:00:00 11.2 6 Oeste 17 Oeste 0 -- -- 83
2019-02-13 19:00:00 11.4 9 Oeste 18 Sudoeste 0 -- -- 80
2019-02-13 18:00:00 12 14 Sudoeste 25 Sur 0 -- -- 74
2019-02-13 17:00:00 12.7 11 Sur 16 Sur 0 -- -- 72
2019-02-13 16:00:00 14.1 7 Sudeste 14 Este 0 -- -- 64
2019-02-13 15:00:00 13.9 12 Sudeste 22 Este 0 -- -- 64
2019-02-13 14:00:00 12.7 17 Este 23 Este 0 -- -- 69
2019-02-13 13:00:00 12.4 18 Este 23 Este 0 -- -- 68
2019-02-13 12:00:00 12.4 16 Este 21 Este 0 -- -- 68
2019-02-13 11:00:00 11.6 7 Nordeste 14 Norte 0 -- -- 64
2019-02-13 10:00:00 9.5 8 Norte 18 Norte 0 -- -- 56
2019-02-13 09:00:00 7.7 9 Norte 21 Norte 0 -- -- 62
2019-02-13 08:00:00 5.7 14 Norte 21 Norte 0 -- -- 67
2019-02-13 07:00:00 5.4 10 Norte 18 Norte 0 -- -- 68
2019-02-13 06:00:00 5.8 12 Norte 18 Norte 0 -- -- 65
2019-02-13 05:00:00 7.9 0 Calma 11 Norte 0 -- -- 60
2019-02-13 04:00:00 9.4 0 Calma 13 Oeste 0 -- -- 53
2019-02-13 03:00:00 10.3 8 Oeste 22 Oeste 0 -- -- 50
2019-02-13 02:00:00 10.3 9 Noroeste 25 Oeste 0 -- -- 50
2019-02-13 01:00:00 10.9 8 Oeste 16 Oeste 0 -- -- 48
2019-02-13 00:00:00 10.7 11 Oeste 16 Oeste 0 -- -- 50
2019-02-12 23:00:00 11.4 9 Oeste 17 Oeste 0 -- -- 50
2019-02-12 22:00:00 11.6 12 Oeste 18 Oeste 0 -- -- 59
2019-02-12 21:00:00 11.6 10 Oeste 21 Oeste 0 -- -- 62
2019-02-12 20:00:00 11.9 14 Oeste 26 Oeste 0 -- -- 62
2019-02-12 19:00:00 12.4 15 Oeste 25 Oeste 0 -- -- 61
2019-02-12 18:00:00 13.5 12 Oeste 27 Sudoeste 0 -- -- 56
2019-02-12 17:00:00 13.9 18 Sudoeste 28 Sudoeste 0 -- -- 48
2019-02-12 16:00:00 13.7 18 Sudoeste 31 Sur 0 -- -- 57
2019-02-12 15:00:00 13 24 Sudoeste 30 Sudoeste 0 -- -- 63
2019-02-12 14:00:00 13.1 20 Sudoeste 28 Sudoeste 0 -- -- 62
2019-02-12 13:00:00 13.6 9 Sudeste 14 Sur 0 -- -- 55
2019-02-12 12:00:00 13 8 Sur 13 Norte 0 -- -- 51
2019-02-12 11:00:00 12 8 Nordeste 14 Nordeste 0 -- -- 50
2019-02-12 10:00:00 10.8 6 Norte 16 Norte 0 -- -- 54
2019-02-12 09:00:00 9.5 7 Norte 19 Norte 0 -- -- 59
2019-02-12 08:00:00 7.7 8 Norte 21 Norte 0 -- -- 68
2019-02-12 07:00:00 8.3 10 Norte 21 Norte 0 -- -- 72
2019-02-12 06:00:00 8.7 6 Norte 18 Norte 0 -- -- 68
2019-02-12 05:00:00 8.7 9 Norte 14 Norte 0 -- -- 81
2019-02-12 04:00:00 9 9 Norte 15 Norte 0 -- -- 83
2019-02-12 03:00:00 9.6 10 Norte 16 Norte 0 -- -- 81
2019-02-12 02:00:00 9.9 6 Norte 14 Norte 0 -- -- 81
2019-02-12 01:00:00 10.4 9 Norte 13 Norte 0 -- -- 80
2019-02-12 00:00:00 10.6 6 Norte 11 Sur 0 -- -- 80
2019-02-11 23:00:00 11.5 10 Sur 13 Sudeste 0 -- -- 81
2019-02-11 22:00:00 11.8 8 Sudeste 14 Sudeste 0 -- -- 78
2019-02-11 21:00:00 11.9 9 Sudeste 14 Sudeste 0 -- -- 75
2019-02-11 20:00:00 11.8 8 Sur 17 Sudoeste 0 -- -- 72
2019-02-11 19:00:00 11.8 12 Sudoeste 20 Sudoeste 0 -- -- 68
2019-02-11 18:00:00 12.6 12 Sudoeste 25 Sudoeste 0 -- -- 65
2019-02-11 17:00:00 12.9 19 Sudoeste 27 Sudoeste 0 -- -- 67
2019-02-11 16:00:00 13.3 19 Sudoeste 27 Sudoeste 0 -- -- 64
2019-02-11 15:00:00 15.9 6 Oeste 25 Sudoeste 0 -- -- 41
2019-02-11 14:00:00 14.9 7 Sudoeste 20 Noroeste 0 -- -- 51
2019-02-11 13:00:00 14.5 13 Sur 24 Sudoeste 0 -- -- 55
2019-02-11 12:00:00 14.6 2 Este 11 Sur 0 -- -- 56
2019-02-11 11:00:00 13.1 7 Sur 16 Sudoeste 0 -- -- 64
2019-02-11 10:00:00 13.1 3 Sudoeste 15 Norte 0 -- -- 65
2019-02-11 09:00:00 10.7 7 Norte 12 Norte 0 -- -- 66
2019-02-11 08:00:00 10.6 6 Norte 17 Norte 0 -- -- 66
2019-02-11 07:00:00 11 8 Norte 16 Norte 0 -- -- 64
2019-02-11 06:00:00 11.1 9 Norte 16 Noroeste 0 -- -- 63
2019-02-11 05:00:00 11 6 Norte 15 Norte 0 -- -- 64
2019-02-11 04:00:00 11.2 5 Noroeste 16 Oeste 0 -- -- 62
2019-02-11 03:00:00 11.9 10 Oeste 21 Oeste 0 -- -- 58
2019-02-11 02:00:00 12.4 13 Norte 28 Nordeste 0 -- -- 78
2019-02-11 01:00:00 11.9 14 Nordeste 25 Nordeste 0 -- -- 83
2019-02-11 00:00:00 12.1 5 Norte 20 Nordeste 0 -- -- 77
2019-02-10 23:00:00 12.5 14 Nordeste 24 Este 0 -- -- 82
2019-02-10 22:00:00 12.4 11 Este 26 Este 0 -- -- 88
2019-02-10 21:00:00 14.4 5 Este 22 Oeste 0 -- -- 66
2019-02-10 20:00:00 15.7 15 Sudoeste 30 Sudoeste 0 -- -- 56
2019-02-10 19:00:00 15.6 12 Sudoeste 27 Oeste 0 -- -- 56
2019-02-10 18:00:00 17.5 14 Oeste 33 Oeste 0 -- -- 45
2019-02-10 17:00:00 17.8 12 Oeste 37 Oeste 0 -- -- 45
2019-02-10 16:00:00 17.7 11 Oeste 46 Oeste 0 -- -- 42
2019-02-10 15:00:00 16.4 21 Oeste 49 Oeste 0 -- -- 43
2019-02-10 14:00:00 16.5 22 Noroeste 45 Oeste 0 -- -- 42
2019-02-10 13:00:00 17.7 20 Oeste 42 Oeste 0 -- -- 41
2019-02-10 12:00:00 16.5 25 Oeste 40 Oeste 0 -- -- 44
2019-02-10 11:00:00 15.2 8 Oeste 26 Oeste 0 -- -- 47
2019-02-10 10:00:00 13 12 Sudoeste 15 Sudoeste 0 -- -- 55
2019-02-10 09:00:00 10.5 9 Oeste 17 Oeste 0 -- -- 67
2019-02-10 08:00:00 10.1 12 Oeste 19 Oeste 0 -- -- 70
2019-02-10 07:00:00 10.2 14 Oeste 22 Oeste 0 -- -- 70
2019-02-10 06:00:00 10.3 14 Oeste 26 Oeste 0 -- -- 69
2019-02-10 05:00:00 10.7 13 Oeste 22 Oeste 0 -- -- 68
2019-02-10 04:00:00 10.2 2 Sur 13 Sudoeste 0 -- -- 81
2019-02-10 03:00:00 10.4 6 Sudoeste 13 Sur 0 -- -- 84
2019-02-10 02:00:00 11.1 6 Sudoeste 14 Sudoeste 0 -- -- 78
2019-02-10 01:00:00 11.1 5 Oeste 16 Sudoeste 0 -- -- 82
2019-02-10 00:00:00 11.1 6 Oeste 15 Oeste 0 -- -- 90
2019-02-09 23:00:00 11.2 6 Oeste 12 Oeste 0 -- -- 93
2019-02-09 22:00:00 11.2 7 Oeste 14 Oeste 0 -- -- 93
2019-02-09 21:00:00 11.6 6 Oeste 10 Oeste 0 -- -- 92
2019-02-09 20:00:00 11.5 5 Sudoeste 12 Oeste 0 -- -- 92
2019-02-09 19:00:00 11.7 7 Oeste 15 Sur 0 -- -- 92
2019-02-09 18:00:00 12.1 12 Sudoeste 15 Sudoeste 0 -- -- 91
2019-02-09 17:00:00 12.5 13 Sur 15 Sur 0 -- -- 88
2019-02-09 16:00:00 13.4 11 Sur 15 Sur 0 -- -- 81
2019-02-09 15:00:00 13.6 11 Sur 15 Sudoeste 0 -- -- 76
2019-02-09 14:00:00 14.5 9 Sur 15 Sur 0 -- -- 70
2019-02-09 13:00:00 15.2 8 Sudeste 12 Sudeste 0 -- -- 68
2019-02-09 12:00:00 14.9 8 Este 11 Este 0 -- -- 68
2019-02-09 11:00:00 12.9 6 Nordeste 12 Norte 0 -- -- 70
2019-02-09 10:00:00 12.4 5 Norte 12 Norte 0 -- -- 74
2019-02-09 09:00:00 9.8 8 Norte 15 Norte 0 -- -- 86
2019-02-09 08:00:00 9 8 Norte 15 Norte 0 -- -- 88
2019-02-09 07:00:00 8.9 11 Norte 18 Nordeste 0 -- -- 88
2019-02-09 06:00:00 9.2 11 Norte 19 Nordeste 0 -- -- 84
2019-02-09 05:00:00 9.1 8 Norte 17 Norte 0 -- -- 76
2019-02-09 04:00:00 10.2 2 Noroeste 10 Oeste 0 -- -- 77
2019-02-09 03:00:00 10.4 6 Oeste 20 Oeste 0 -- -- 81
2019-02-09 02:00:00 10.8 11 Oeste 19 Oeste 0 -- -- 84
2019-02-09 01:00:00 10.9 12 Oeste 18 Oeste 0 -- -- 84
2019-02-09 00:00:00 11 8 Oeste 13 Oeste 0 -- -- 85
2019-02-08 23:00:00 11.2 6 Oeste 17 Oeste 0 -- -- 85
2019-02-08 22:00:00 11.5 13 Oeste 22 Oeste 0 -- -- 84
2019-02-08 21:00:00 11.7 14 Oeste 22 Oeste 0 -- -- 84
2019-02-08 20:00:00 11.8 13 Oeste 30 Oeste 0 -- -- 85
2019-02-08 19:00:00 12 17 Oeste 33 Oeste 0 -- -- 87
2019-02-08 18:00:00 12.5 19 Sudoeste 35 Sudoeste 0 -- -- 86
2019-02-08 17:00:00 13.2 23 Sudoeste 38 Sudoeste 0 -- -- 83
2019-02-08 16:00:00 13.7 18 Sudoeste 35 Sudoeste 0 -- -- 77
2019-02-08 15:00:00 14 24 Sudoeste 34 Sudoeste 0 -- -- 70
2019-02-08 14:00:00 15.1 19 Sudoeste 30 Sudoeste 0 -- -- 59
2019-02-08 13:00:00 13.4 16 Sudoeste 24 Sudoeste 0 -- -- 69
2019-02-08 12:00:00 14.7 7 Oeste 15 Oeste 0 -- -- 53
2019-02-08 11:00:00 13.8 5 Sudeste 7 Sudeste 0 -- -- 58
2019-02-08 10:00:00 11.9 0 Calma 7 Sudeste 0 -- -- 60
2019-02-08 09:00:00 9.6 3 Nordeste 7 Oeste 0 -- -- 70
2019-02-08 08:00:00 8.6 5 Norte 9 Noroeste 0 -- -- 77
2019-02-08 07:00:00 8.2 3 Norte 10 Noroeste 0 -- -- 87
2019-02-08 06:00:00 8.7 4 Norte 12 Oeste 0 -- -- 87
2019-02-08 05:00:00 9.9 6 Oeste 14 Sudoeste 0 -- -- 88
2019-02-08 04:00:00 9.3 0 Calma 5 Norte 0 -- -- 92
2019-02-08 03:00:00 9.9 3 Noroeste 5 Oeste 0 -- -- 92
2019-02-08 02:00:00 10.6 3 Oeste 6 Oeste 0 -- -- 94
2019-02-08 01:00:00 10.6 2 Sudoeste 4 Sudoeste 0 -- -- 94
2019-02-08 00:00:00 10.7 0 Calma 2 Noroeste 0 -- -- 94
2019-02-07 23:00:00 11 0 Calma 4 Este 0 -- -- 94
2019-02-07 22:00:00 11.1 2 Sudeste 6 Sur 0 -- -- 93
2019-02-07 21:00:00 11.3 4 Sur 8 Sudeste 0 -- -- 92
2019-02-07 20:00:00 11.4 4 Sur 11 Sudeste 0 -- -- 92
2019-02-07 19:00:00 11.2 3 Sudeste 7 Sudeste 0 -- -- 92
2019-02-07 18:00:00 12 5 Sudeste 6 Sudeste 0 -- -- 88
2019-02-07 17:00:00 12.5 4 Sudeste 10 Este 0 -- -- 85
2019-02-07 16:00:00 13.2 8 Este 13 Este 0 -- -- 82
2019-02-07 15:00:00 12.7 13 Este 17 Este 0 -- -- 85
2019-02-07 14:00:00 12.8 12 Este 19 Este 0 -- -- 85
2019-02-07 13:00:00 12.4 12 Este 16 Este 0 -- -- 88
2019-02-07 12:00:00 12.1 10 Este 13 Este 0 -- -- 84
2019-02-07 11:00:00 10.4 8 Norte 15 Norte 0 -- -- 75
2019-02-07 10:00:00 9.7 7 Norte 15 Norte 0 -- -- 79
2019-02-07 09:00:00 8.5 10 Norte 18 Norte 0 -- -- 84
2019-02-07 08:00:00 7.4 12 Norte 17 Norte 0 -- -- 89
2019-02-07 07:00:00 6.9 5 Norte 12 Norte 0 -- -- 90
2019-02-07 06:00:00 7.2 8 Norte 11 Norte 0 -- -- 90
2019-02-07 05:00:00 7.8 6 Norte 10 Norte 0 -- -- 91
2019-02-07 04:00:00 8.1 5 Norte 10 Norte 0 -- -- 91
2019-02-07 03:00:00 8.6 6 Norte 10 Norte 0 -- -- 91
2019-02-07 02:00:00 9 5 Norte 9 Norte 0 -- -- 91
2019-02-07 01:00:00 9.9 8 Norte 11 Norte 0 -- -- 91
2019-02-07 00:00:00 10.3 5 Norte 9 Norte 0 -- -- 91
2019-02-06 23:00:00 10.9 0 Calma 8 Norte 0 -- -- 91
2019-02-06 22:00:00 11.3 4 Norte 10 Norte 0 -- -- 92
2019-02-06 21:00:00 11.9 3 Oeste 6 Oeste 0 -- -- 86
2019-02-06 20:00:00 12.1 2 Sudoeste 13 Sudoeste 0 -- -- 87
2019-02-06 19:00:00 12.3 6 Sudoeste 14 Sudoeste 0 -- -- 87
2019-02-06 18:00:00 12.6 11 Sudoeste 19 Sudoeste 0 -- -- 87
2019-02-06 17:00:00 12.8 13 Sudoeste 21 Sudoeste 0 -- -- 86
2019-02-06 16:00:00 13.3 14 Sur 21 Sudoeste 0 -- -- 81
2019-02-06 15:00:00 13.3 18 Sudoeste 21 Sudoeste 0 -- -- 87
2019-02-06 14:00:00 13.5 15 Sudoeste 20 Sudoeste 0 -- -- 81
2019-02-06 13:00:00 14.9 9 Sur 12 Sur 0 -- -- 67
2019-02-06 12:00:00 13.8 9 Sur 12 Sur 0 -- -- 71
2019-02-06 11:00:00 13.5 3 Oeste 13 Norte 0 -- -- 66
2019-02-06 10:00:00 11.8 4 Norte 12 Norte 0 -- -- 70
2019-02-06 09:00:00 9.4 8 Norte 12 Norte 0 -- -- 80
2019-02-06 08:00:00 7.8 9 Norte 12 Norte 0 -- -- 85
2019-02-06 07:00:00 8.5 0 Calma 4 Norte 0 -- -- 84
2019-02-06 06:00:00 8.2 0 Calma 10 Norte 0 -- -- 83
2019-02-06 05:00:00 7.8 8 Norte 13 Norte 0 -- -- 82
2019-02-06 04:00:00 8 9 Norte 15 Norte 0 -- -- 81
2019-02-06 03:00:00 8.6 9 Norte 14 Norte 0 -- -- 76
2019-02-06 02:00:00 9.2 6 Norte 9 Norte 0 -- -- 76
2019-02-06 01:00:00 9.7 7 Norte 11 Norte 0 -- -- 74
2019-02-06 00:00:00 10.5 9 Norte 13 Norte 0 -- -- 74
2019-02-05 23:00:00 10.5 9 Norte 12 Norte 0 -- -- 80
2019-02-05 22:00:00 11.2 5 Norte 7 Norte 0 -- -- 88
2019-02-05 21:00:00 11.8 5 Sudoeste 8 Sur 0 -- -- 92
2019-02-05 20:00:00 12 4 Sudoeste 10 Sudoeste 0 -- -- 89
2019-02-05 19:00:00 12 7 Sudoeste 12 Sudoeste 0 -- -- 88
2019-02-05 18:00:00 12.4 10 Sudoeste 16 Sudoeste 0 -- -- 83
2019-02-05 17:00:00 12.7 13 Sudoeste 22 Sur 0 -- -- 78
2019-02-05 16:00:00 12.9 18 Sudoeste 22 Sudoeste 0 -- -- 75
2019-02-05 15:00:00 12.1 19 Sudoeste 27 Sudoeste 0 -- -- 76
2019-02-05 14:00:00 13.4 14 Sur 19 Sur 0 -- -- 63
2019-02-05 13:00:00 14.6 8 Oeste 24 Sudoeste 0 -- -- 48
2019-02-05 12:00:00 13.4 7 Oeste 17 Oeste 0 -- -- 50
2019-02-05 11:00:00 12.6 5 Oeste 13 Norte 0 -- -- 52
2019-02-05 10:00:00 11.8 3 Norte 10 Norte 0 -- -- 53
2019-02-05 09:00:00 9.3 6 Norte 11 Norte 0 -- -- 58
2019-02-05 08:00:00 7.8 8 Norte 11 Norte 0 -- -- 62
2019-02-05 07:00:00 7.9 7 Norte 12 Norte 0 -- -- 64
2019-02-05 06:00:00 8 4 Norte 9 Norte 0 -- -- 64
2019-02-05 05:00:00 8.5 6 Norte 8 Norte 0 -- -- 63
2019-02-05 04:00:00 9.3 2 Sur 8 Norte 0 -- -- 64
2019-02-05 03:00:00 8.6 4 Norte 7 Noroeste 0 -- -- 59
2019-02-05 02:00:00 8.6 3 Norte 8 Norte 0 -- -- 58
2019-02-05 01:00:00 9.1 3 Norte 6 Norte 0 -- -- 58
2019-02-05 00:00:00 9.9 6 Oeste 10 Oeste 0 -- -- 53
2019-02-04 23:00:00 9.6 6 Oeste 13 Oeste 0 -- -- 59
2019-02-04 22:00:00 9.7 4 Oeste 10 Oeste 0 -- -- 59
2019-02-04 21:00:00 9.6 7 Oeste 11 Sudoeste 0 -- -- 60
2019-02-04 20:00:00 9.4 6 Oeste 14 Oeste 0 -- -- 59
2019-02-04 19:00:00 9.7 9 Sudoeste 17 Sudoeste 0 -- -- 55
2019-02-04 18:00:00 10 12 Sudoeste 18 Sudoeste 0 -- -- 54
2019-02-04 17:00:00 10 12 Sudoeste 16 Sudoeste 0 -- -- 49
2019-02-04 16:00:00 10.7 12 Sur 18 Sur 0 -- -- 41
2019-02-04 15:00:00 11.8 12 Sudeste 19 Sudeste 0 -- -- 37
2019-02-04 14:00:00 12.1 9 Sur 14 Sudeste 0 -- -- 35
2019-02-04 13:00:00 12.5 3 Sudeste 13 Sudeste 0 -- -- 33
2019-02-04 12:00:00 11 7 Sudeste 15 Sudeste 0 -- -- 34
2019-02-04 11:00:00 9.2 4 Sudoeste 17 Noroeste 0 -- -- 35
2019-02-04 10:00:00 6.8 13 Norte 27 Norte 0 -- -- 34
2019-02-04 09:00:00 5.6 7 Norte 22 Norte 0 -- -- 34
2019-02-04 08:00:00 5.1 7 Norte 25 Noroeste 0 -- -- 31
2019-02-04 07:00:00 6.6 17 Noroeste 32 Norte 0 -- -- 29
2019-02-04 06:00:00 6.1 3 Nordeste 13 Noroeste 0 -- -- 30
2019-02-04 05:00:00 6.4 3 Norte 16 Noroeste 0 -- -- 29
2019-02-04 04:00:00 6.1 5 Norte 14 Noroeste 0 -- -- 30
2019-02-04 03:00:00 6.5 3 Norte 12 Oeste 0 -- -- 31
2019-02-04 02:00:00 6.9 4 Sudoeste 12 Norte 0 -- -- 29
2019-02-04 01:00:00 7.6 5 Norte 29 Noroeste 0 -- -- 27
2019-02-04 00:00:00 8.1 14 Noroeste 31 Noroeste 0 -- -- 28
2019-02-03 23:00:00 8.1 13 Noroeste 24 Noroeste 0 -- -- 29
2019-02-03 22:00:00 8.6 12 Noroeste 31 Noroeste 0 -- -- 28
2019-02-03 21:00:00 9 15 Noroeste 29 Noroeste 0 -- -- 27
2019-02-03 20:00:00 10 13 Noroeste 28 Noroeste 0 -- -- 26
2019-02-03 19:00:00 10.5 10 Noroeste 23 Noroeste 0 -- -- 26
2019-02-03 18:00:00 11.4 16 Norte 32 Norte 0 -- -- 24
2019-02-03 17:00:00 12.5 10 Noroeste 35 Noroeste 0 -- -- 23
2019-02-03 16:00:00 13.6 8 Oeste 22 Norte 0 -- -- 22
2019-02-03 15:00:00 13.1 5 Norte 22 Oeste 0 -- -- 24
2019-02-03 14:00:00 12.2 11 Oeste 22 Sudoeste 0 -- -- 27
2019-02-03 13:00:00 11.3 9 Sur 21 Este 0 -- -- 28
2019-02-03 12:00:00 11.2 7 Nordeste 18 Nordeste 0 -- -- 28
2019-02-03 11:00:00 8.9 10 Nordeste 24 Norte 0 -- -- 29
2019-02-03 10:00:00 8.3 12 Nordeste 26 Norte 0 -- -- 29
2019-02-03 09:00:00 6.9 12 Norte 27 Noroeste 0 -- -- 31
2019-02-03 08:00:00 6.2 8 Noroeste 15 Oeste 0 -- -- 35
2019-02-03 07:00:00 6.8 6 Noroeste 30 Norte 0 -- -- 31
2019-02-03 06:00:00 6.7 14 Norte 37 Noroeste 0 -- -- 32
2019-02-03 05:00:00 7 15 Noroeste 35 Noroeste 0 -- -- 32
2019-02-03 04:00:00 7.2 19 Noroeste 38 Norte 0 -- -- 32
2019-02-03 03:00:00 7.3 17 Noroeste 45 Noroeste 0 -- -- 32
2019-02-03 02:00:00 7.5 22 Noroeste 48 Noroeste 0 -- -- 31
2019-02-03 01:00:00 7.8 21 Noroeste 48 Noroeste 0 -- -- 33
2019-02-03 00:00:00 8.1 15 Noroeste 35 Noroeste 0 -- -- 35
2019-02-02 23:00:00 9.3 19 Noroeste 37 Norte 0 -- -- 33
2019-02-02 22:00:00 9.3 17 Noroeste 35 Noroeste 0 -- -- 36
2019-02-02 21:00:00 9.4 13 Norte 25 Noroeste 0 -- -- 41
2019-02-02 20:00:00 9.6 8 Noroeste 26 Noroeste 0 -- -- 50
2019-02-02 19:00:00 10.6 16 Noroeste 37 Noroeste 0 -- -- 51
2019-02-02 18:00:00 11.6 17 Oeste 45 Noroeste 0 -- -- 51
2019-02-02 17:00:00 11.1 3 Nordeste 55 Noroeste 0.2 -- -- 60
2019-02-02 16:00:00 12.9 6 Norte 31 Noroeste 0 -- -- 52
2019-02-02 15:00:00 12.2 14 Noroeste 33 Oeste 0 -- -- 54
2019-02-02 14:00:00 11.4 11 Noroeste 39 Noroeste 0 -- -- 59
2019-02-02 13:00:00 9.8 13 Noroeste 27 Noroeste 0 -- -- 63
2019-02-02 12:00:00 8.4 9 Noroeste 19 Noroeste 0 -- -- 68
2019-02-02 11:00:00 8.2 10 Noroeste 25 Noroeste 0 -- -- 68
2019-02-02 10:00:00 7.9 13 Noroeste 24 Noroeste 0 -- -- 67
2019-02-02 09:00:00 7.4 11 Noroeste 21 Norte 0 -- -- 68
2019-02-02 08:00:00 7.4 9 Oeste 29 Noroeste 0 -- -- 68
2019-02-02 07:00:00 7.9 12 Oeste 35 Noroeste 0 -- -- 64
2019-02-02 06:00:00 7.9 10 Oeste 28 Noroeste 0 -- -- 65
2019-02-02 05:00:00 8.2 7 Oeste 26 Oeste 0 -- -- 64
2019-02-02 04:00:00 8.2 14 Sudoeste 41 Oeste 0 -- -- 66
2019-02-02 03:00:00 8.1 19 Oeste 42 Oeste 0 -- -- 69
2019-02-02 02:00:00 8.4 14 Oeste 26 Oeste 0 -- -- 70
2019-02-02 01:00:00 8.7 9 Noroeste 32 Norte 0 -- -- 67
2019-02-02 00:00:00 9 10 Noroeste 46 Noroeste 0.6 -- -- 73
2019-02-01 23:00:00 10.6 21 Noroeste 45 Noroeste 0 -- -- 64
2019-02-01 22:00:00 11.6 6 Oeste 18 Oeste 0 -- -- 72
2019-02-01 21:00:00 11.8 9 Oeste 18 Oeste 0 -- -- 81
2019-02-01 20:00:00 12.2 3 Sudoeste 20 Sudoeste 0 -- -- 77
2019-02-01 19:00:00 12.5 9 Sudoeste 17 Sudoeste 0 -- -- 69
2019-02-01 18:00:00 13.4 8 Oeste 31 Sudoeste 0 -- -- 61
2019-02-01 17:00:00 14.7 15 Sudoeste 25 Sudoeste 0 -- -- 59
2019-02-01 16:00:00 15.1 17 Oeste 34 Oeste 0 -- -- 44
2019-02-01 15:00:00 15.4 13 Oeste 28 Sudoeste 0 -- -- 64
2019-02-01 14:00:00 14.7 15 Sudoeste 27 Sudoeste 0 -- -- 71
2019-02-01 13:00:00 13 21 Sudoeste 27 Sudoeste 0 -- -- 74
2019-02-01 12:00:00 13.1 13 Oeste 26 Oeste 0 -- -- 70
2019-02-01 11:00:00 11.9 14 Noroeste 34 Noroeste 0.2 -- -- 80
2019-02-01 10:00:00 12.5 17 Noroeste 44 Sudoeste 0.1 -- -- 81
2019-02-01 09:00:00 14.1 23 Sudoeste 39 Oeste 0 -- -- 85
2019-02-01 08:00:00 14.2 21 Oeste 51 Oeste 0 -- -- 81
2019-02-01 07:00:00 14.7 28 Oeste 57 Oeste 0 -- -- 77
2019-02-01 06:00:00 14.6 29 Oeste 57 Oeste 0 -- -- 76
2019-02-01 05:00:00 14.6 6 Sudoeste 27 Oeste 0 -- -- 70
2019-02-01 04:00:00 14.4 15 Oeste 29 Oeste 0 -- -- 75
2019-02-01 03:00:00 13.4 12 Oeste 20 Oeste 0 -- -- 77
2019-02-01 02:00:00 12.5 10 Oeste 17 Oeste 0 -- -- 77
2019-02-01 01:00:00 13 8 Sudoeste 15 Sudoeste 0 -- -- 78
2019-02-01 00:00:00 12.3 9 Sudoeste 13 Sudoeste 0 -- -- 89
2019-01-31 23:00:00 12.7 3 Sudoeste 19 Sudoeste 0 -- -- 88
2019-01-31 22:00:00 13.3 9 Oeste 18 Sudoeste 0 -- -- 70
2019-01-31 21:00:00 14.1 7 Sudoeste 13 Oeste 0 -- -- 65
2019-01-31 20:00:00 14.6 9 Noroeste 22 Oeste 0 -- -- 64
2019-01-31 19:00:00 14.8 9 Noroeste 22 Noroeste 0 -- -- 63
2019-01-31 18:00:00 15.1 9 Oeste 24 Sudoeste 0 -- -- 67
2019-01-31 17:00:00 14.8 15 Sudoeste 37 Oeste 0 -- -- 69
2019-01-31 16:00:00 15.5 12 Sudoeste 28 Sudoeste 0 -- -- 64
2019-01-31 15:00:00 15.8 10 Oeste 23 Oeste 0 -- -- 61
2019-01-31 14:00:00 15.7 12 Oeste 22 Oeste 0 -- -- 60
2019-01-31 13:00:00 14.4 13 Oeste 25 Oeste 0 -- -- 63
2019-01-31 12:00:00 13.1 12 Oeste 26 Noroeste 0 -- -- 68
2019-01-31 11:00:00 13 12 Oeste 29 Oeste 0 -- -- 66
2019-01-31 10:00:00 11.9 9 Oeste 18 Oeste 0 -- -- 63
2019-01-31 09:00:00 9.8 6 Noroeste 16 Oeste 0 -- -- 64
2019-01-31 08:00:00 9.1 9 Oeste 19 Oeste 0 -- -- 65
2019-01-31 07:00:00 9.4 8 Noroeste 22 Noroeste 0 -- -- 63
2019-01-31 06:00:00 9.1 8 Noroeste 23 Noroeste 0 -- -- 59
2019-01-31 05:00:00 9 10 Oeste 19 Oeste 0 -- -- 56
2019-01-31 04:00:00 9.6 13 Noroeste 22 Noroeste 0 -- -- 51
2019-01-31 03:00:00 10.2 8 Noroeste 17 Oeste 0 -- -- 53
2019-01-31 02:00:00 10.2 10 Oeste 17 Oeste 0 -- -- 50
2019-01-31 01:00:00 9.9 10 Oeste 18 Oeste 0 -- -- 50
2019-01-31 00:00:00 9.6 9 Oeste 34 Oeste 0 -- -- 50
2019-01-30 23:00:00 9.5 9 Oeste 21 Oeste 0 -- -- 50
2019-01-30 22:00:00 10.2 13 Oeste 31 Noroeste 0 -- -- 48
2019-01-30 21:00:00 10.6 15 Oeste 30 Noroeste 0 -- -- 47
2019-01-30 20:00:00 10.4 14 Oeste 28 Sudoeste 0 -- -- 49
2019-01-30 19:00:00 11 10 Oeste 31 Noroeste 0 -- -- 49
2019-01-30 18:00:00 11.4 13 Noroeste 39 Noroeste 0 -- -- 49
2019-01-30 17:00:00 12.1 17 Noroeste 36 Noroeste 0 -- -- 47
2019-01-30 16:00:00 12.9 14 Oeste 42 Noroeste 0 -- -- 47
2019-01-30 15:00:00 12.8 20 Oeste 42 Oeste 0 -- -- 46
2019-01-30 14:00:00 12.3 22 Oeste 41 Oeste 0 -- -- 46
2019-01-30 13:00:00 11.8 13 Oeste 37 Noroeste 0 -- -- 48
2019-01-30 12:00:00 11 12 Noroeste 27 Noroeste 0 -- -- 54
2019-01-30 11:00:00 9 15 Oeste 35 Oeste 0 -- -- 61
2019-01-30 10:00:00 7.5 17 Noroeste 28 Noroeste 0 -- -- 64
2019-01-30 09:00:00 7.1 13 Noroeste 27 Oeste 0 -- -- 66
2019-01-30 08:00:00 6.5 19 Oeste 31 Oeste 0 -- -- 68
2019-01-30 07:00:00 6.6 16 Oeste 31 Oeste 0 -- -- 68
2019-01-30 06:00:00 7 9 Noroeste 34 Noroeste 0 -- -- 66
2019-01-30 05:00:00 7.4 18 Noroeste 40 Noroeste 0 -- -- 65
2019-01-30 04:00:00 7.8 19 Noroeste 40 Noroeste 0 -- -- 65
2019-01-30 03:00:00 8.2 8 Noroeste 32 Noroeste 0 -- -- 66
2019-01-30 02:00:00 8.3 0 Calma 21 Norte 0 -- -- 68
2019-01-30 01:00:00 8.8 5 Noroeste 33 Noroeste 0 -- -- 67
2019-01-30 00:00:00 9.1 13 Noroeste 37 Norte 0 -- -- 68
2019-01-29 23:00:00 9.1 10 Oeste 24 Noroeste 0 -- -- 68
2019-01-29 22:00:00 9.3 9 Noroeste 15 Noroeste 0 -- -- 71
2019-01-29 21:00:00 9.1 4 Nordeste 15 Noroeste 0 -- -- 72
2019-01-29 20:00:00 9.4 9 Oeste 24 Sudoeste 0 -- -- 69
2019-01-29 19:00:00 9.4 12 Oeste 27 Oeste 0 -- -- 69
2019-01-29 18:00:00 9.5 7 Oeste 21 Oeste 0 -- -- 70
2019-01-29 17:00:00 9.5 13 Oeste 24 Oeste 0 -- -- 68
2019-01-29 16:00:00 9.6 16 Oeste 28 Oeste 0 -- -- 68
2019-01-29 15:00:00 9.7 9 Oeste 17 Oeste 0 -- -- 68
2019-01-29 14:00:00 10.2 5 Oeste 11 Oeste 0 -- -- 64
2019-01-29 13:00:00 10.3 3 Noroeste 9 Noroeste 0 -- -- 64
2019-01-29 12:00:00 9.4 6 Noroeste 12 Norte 0 -- -- 64
2019-01-29 11:00:00 8.7 7 Norte 19 Norte 0 -- -- 64
2019-01-29 10:00:00 8.2 9 Norte 20 Noroeste 0 -- -- 67
2019-01-29 09:00:00 6.5 11 Norte 21 Norte 0 -- -- 72
2019-01-29 08:00:00 6.1 6 Norte 18 Norte 0 -- -- 73
2019-01-29 07:00:00 6.4 9 Norte 18 Norte 0 -- -- 72
2019-01-29 06:00:00 6.7 6 Norte 17 Nordeste 0 -- -- 70
2019-01-29 05:00:00 8.1 5 Norte 26 Este 0 -- -- 65
2019-01-29 04:00:00 8.1 9 Sur 21 Noroeste 0 -- -- 66
2019-01-29 03:00:00 8.5 14 Noroeste 43 Noroeste 0 -- -- 63
2019-01-29 02:00:00 8.9 19 Noroeste 40 Noroeste 0 -- -- 61
2019-01-29 01:00:00 9.2 17 Noroeste 38 Noroeste 0 -- -- 60
2019-01-29 00:00:00 9.1 11 Noroeste 37 Noroeste 0 -- -- 60
2019-01-28 23:00:00 9.5 15 Noroeste 30 Noroeste 0 -- -- 59
2019-01-28 22:00:00 9.3 4 Norte 11 Oeste 0 -- -- 57
2019-01-28 21:00:00 9.6 6 Norte 21 Norte 0 -- -- 56
2019-01-28 20:00:00 10.7 9 Norte 20 Norte 0 -- -- 52
2019-01-28 19:00:00 11.3 13 Norte 28 Norte 0 -- -- 50
2019-01-28 18:00:00 12.3 14 Noroeste 32 Norte 0 -- -- 49
2019-01-28 17:00:00 13.3 15 Norte 45 Nordeste 0 -- -- 48
2019-01-28 16:00:00 14.2 16 Norte 51 Noroeste 0 -- -- 46
2019-01-28 15:00:00 13.5 26 Noroeste 62 Noroeste 0 -- -- 49
2019-01-28 14:00:00 13 25 Noroeste 51 Noroeste 0 -- -- 52
2019-01-28 13:00:00 11.3 26 Noroeste 60 Noroeste 0 -- -- 58
2019-01-28 12:00:00 11 20 Noroeste 48 Norte 0 -- -- 58
2019-01-28 11:00:00 10.1 6 Noroeste 39 Noroeste 0 -- -- 61
2019-01-28 10:00:00 8.3 10 Oeste 30 Noroeste 0 -- -- 64
2019-01-28 09:00:00 7 17 Oeste 28 Oeste 0 -- -- 65
2019-01-28 08:00:00 6.8 12 Noroeste 31 Oeste 0 -- -- 64
2019-01-28 07:00:00 6.8 4 Nordeste 33 Noroeste 0 -- -- 64
2019-01-28 06:00:00 7 16 Noroeste 31 Noroeste 0 -- -- 63
2019-01-28 05:00:00 7 4 Norte 38 Noroeste 0 -- -- 61
2019-01-28 04:00:00 7.5 16 Noroeste 47 Noroeste 0 -- -- 58
2019-01-28 03:00:00 7.5 20 Noroeste 40 Norte 0 -- -- 57
2019-01-28 02:00:00 7.8 19 Noroeste 50 Noroeste 0 -- -- 56
2019-01-28 01:00:00 8.2 23 Noroeste 51 Noroeste 0 -- -- 55
2019-01-28 00:00:00 8.3 22 Noroeste 46 Noroeste 0 -- -- 54
2019-01-27 23:00:00 8.6 26 Noroeste 51 Oeste 0 -- -- 52
2019-01-27 22:00:00 9.6 25 Oeste 54 Noroeste 0 -- -- 50
2019-01-27 21:00:00 10.1 21 Noroeste 53 Noroeste 0 -- -- 49
2019-01-27 20:00:00 10.8 28 Noroeste 50 Noroeste 0 -- -- 48
2019-01-27 19:00:00 12 22 Noroeste 57 Noroeste 0 -- -- 46
2019-01-27 18:00:00 13.3 23 Noroeste 53 Noroeste 0 -- -- 42
2019-01-27 17:00:00 15.3 12 Noroeste 33 Oeste 0 -- -- 41
2019-01-27 16:00:00 15.7 9 Noroeste 40 Noroeste 0 -- -- 43
2019-01-27 15:00:00 15.3 16 Noroeste 35 Noroeste 0 -- -- 46
2019-01-27 14:00:00 13.7 8 Noroeste 23 Nordeste 0 -- -- 55
2019-01-27 13:00:00 12.9 15 Norte 36 Oeste 0 -- -- 56
2019-01-27 12:00:00 13.3 13 Noroeste 31 Noroeste 0 -- -- 57
2019-01-27 11:00:00 11.4 3 Norte 23 Norte 0 -- -- 66
2019-01-27 10:00:00 8.9 9 Norte 19 Norte 0 -- -- 77
2019-01-27 09:00:00 7.6 8 Norte 24 Norte 0 -- -- 83
2019-01-27 08:00:00 8 11 Norte 16 Norte 0 -- -- 81
2019-01-27 07:00:00 8.7 8 Norte 15 Noroeste 0 -- -- 76
2019-01-27 06:00:00 8.8 8 Noroeste 15 Norte 0 -- -- 75
2019-01-27 05:00:00 10.2 7 Noroeste 17 Noroeste 0 -- -- 69
2019-01-27 04:00:00 11 12 Noroeste 19 Noroeste 0 -- -- 67
2019-01-27 03:00:00 9 6 Norte 14 Noroeste 0 -- -- 85
2019-01-27 02:00:00 9.4 4 Noroeste 8 Norte 0 -- -- 83
2019-01-27 01:00:00 10.9 4 Oeste 12 Oeste 0 -- -- 78
2019-01-27 00:00:00 11.2 7 Noroeste 14 Oeste 0 -- -- 79
2019-01-26 23:00:00 11 9 Oeste 15 Oeste 0 -- -- 84
2019-01-26 22:00:00 11.2 9 Oeste 16 Oeste 0 -- -- 84
2019-01-26 21:00:00 11.6 9 Oeste 19 Oeste 0 -- -- 82
2019-01-26 20:00:00 11.9 11 Oeste 28 Oeste 0 -- -- 80
2019-01-26 19:00:00 12.4 14 Oeste 26 Oeste 0 -- -- 73
2019-01-26 18:00:00 13 14 Oeste 28 Oeste 0 -- -- 72
2019-01-26 17:00:00 13.9 13 Sudoeste 22 Sudoeste 0 -- -- 68
2019-01-26 16:00:00 14 17 Sudoeste 25 Sudoeste 0 -- -- 67
2019-01-26 15:00:00 13.3 19 Sudoeste 32 Sudoeste 0 -- -- 72
2019-01-26 14:00:00 13.4 21 Sudoeste 30 Sudoeste 0 -- -- 66
2019-01-26 13:00:00 14.8 15 Oeste 26 Oeste 0 -- -- 55
2019-01-26 12:00:00 13.8 9 Noroeste 15 Norte 0 -- -- 56
2019-01-26 11:00:00 13.1 4 Noroeste 17 Norte 0 -- -- 61
2019-01-26 10:00:00 10.7 3 Norte 17 Norte 0 -- -- 68
2019-01-26 09:00:00 7.8 4 Noroeste 14 Norte 0 -- -- 76
2019-01-26 08:00:00 7.6 10 Norte 16 Norte 0 -- -- 75
2019-01-26 07:00:00 6.4 8 Nordeste 15 Noroeste 0 -- -- 76
2019-01-26 06:00:00 7.5 10 Norte 17 Norte 0 -- -- 74
2019-01-26 05:00:00 5.9 11 Norte 16 Norte 0 -- -- 74
2019-01-26 04:00:00 6.1 8 Norte 20 Norte 0 -- -- 72
2019-01-26 03:00:00 6.7 2 Norte 15 Norte 0 -- -- 72
2019-01-26 02:00:00 7 13 Norte 21 Norte 0 -- -- 72
2019-01-26 01:00:00 7.9 8 Norte 14 Norte 0 -- -- 72
2019-01-26 00:00:00 8.6 9 Noroeste 13 Norte 0 -- -- 72
2019-01-25 23:00:00 8.9 11 Norte 15 Noroeste 0 -- -- 72
2019-01-25 22:00:00 9.4 12 Norte 15 Norte 0 -- -- 75
2019-01-25 21:00:00 9.9 8 Norte 14 Norte 0 -- -- 77
2019-01-25 20:00:00 10.3 8 Norte 18 Este 0 -- -- 79
2019-01-25 19:00:00 11.1 14 Este 22 Este 0 -- -- 79
2019-01-25 18:00:00 11.4 16 Este 22 Este 0 -- -- 77
2019-01-25 17:00:00 12 13 Este 17 Este 0 -- -- 71
2019-01-25 16:00:00 13.4 10 Sudeste 16 Sudeste 0 -- -- 65
2019-01-25 15:00:00 12.3 9 Sur 12 Sur 0 -- -- 63
2019-01-25 14:00:00 12.2 8 Sur 16 Sudeste 0 -- -- 50
2019-01-25 13:00:00 12.5 7 Sudeste 12 Sudeste 0 -- -- 40
2019-01-25 12:00:00 11.4 5 Este 11 Este 0 -- -- 41
2019-01-25 11:00:00 10.1 2 Este 9 Norte 0 -- -- 42
2019-01-25 10:00:00 6.9 4 Norte 14 Norte 0 -- -- 43
2019-01-25 09:00:00 3.8 10 Norte 17 Norte 0 -- -- 46
2019-01-25 08:00:00 4.3 8 Noroeste 16 Norte 0 -- -- 45
2019-01-25 07:00:00 4 8 Norte 12 Norte 0 -- -- 42
2019-01-25 06:00:00 4.5 9 Norte 22 Norte 0 -- -- 39
2019-01-25 05:00:00 6.1 5 Sudoeste 17 Sudeste 0 -- -- 35
2019-01-25 04:00:00 5.9 10 Norte 17 Norte 0 -- -- 27
2019-01-25 03:00:00 7.2 4 Noroeste 12 Noroeste 0 -- -- 26
2019-01-25 02:00:00 7 5 Noroeste 12 Norte 0 -- -- 26
2019-01-25 01:00:00 7.2 3 Noroeste 12 Noroeste 0 -- -- 26
2019-01-25 00:00:00 7.5 4 Noroeste 17 Noroeste 0 -- -- 27
2019-01-24 23:00:00 7.1 0 Calma 21 Oeste 0 -- -- 29
2019-01-24 22:00:00 7.8 12 Oeste 22 Oeste 0 -- -- 27
2019-01-24 21:00:00 8.8 8 Noroeste 21 Norte 0 -- -- 25
2019-01-24 20:00:00 9.3 13 Noroeste 30 Noroeste 0 -- -- 24
2019-01-24 19:00:00 9.9 14 Noroeste 31 Norte 0 -- -- 23
2019-01-24 18:00:00 11.5 14 Noroeste 30 Noroeste 0 -- -- 21
2019-01-24 17:00:00 12.6 16 Norte 35 Norte 0 -- -- 19
2019-01-24 16:00:00 13.2 18 Norte 39 Norte 0 -- -- 19
2019-01-24 15:00:00 13.1 15 Norte 38 Norte 0 -- -- 20
2019-01-24 14:00:00 12.5 20 Noroeste 42 Noroeste 0 -- -- 22
2019-01-24 13:00:00 11.8 22 Noroeste 45 Noroeste 0 -- -- 25
2019-01-24 12:00:00 10.8 18 Norte 48 Norte 0 -- -- 27
2019-01-24 11:00:00 9.5 20 Norte 50 Norte 0 -- -- 27
2019-01-24 10:00:00 8.3 19 Norte 48 Norte 0 -- -- 32
2019-01-24 09:00:00 7.1 26 Norte 57 Noroeste 0 -- -- 36
2019-01-24 08:00:00 6.3 28 Norte 49 Norte 0 -- -- 39
2019-01-24 07:00:00 6.2 27 Norte 52 Noroeste 0 -- -- 40
2019-01-24 06:00:00 5.9 26 Noroeste 48 Norte 0 -- -- 42
2019-01-24 05:00:00 4.6 8 Nordeste 21 Norte 0 -- -- 56
2019-01-24 04:00:00 5.7 8 Norte 30 Noroeste 0 -- -- 53
2019-01-24 03:00:00 5.8 12 Noroeste 22 Norte 0 -- -- 58
2019-01-24 02:00:00 6.1 10 Noroeste 19 Noroeste 0 -- -- 58
2019-01-24 01:00:00 6.2 13 Noroeste 25 Noroeste 0 -- -- 56
2019-01-24 00:00:00 6.5 15 Norte 31 Norte 0 -- -- 55
2019-01-23 23:00:00 7.1 9 Norte 27 Norte 0 -- -- 57
2019-01-23 22:00:00 7.9 13 Norte 38 Oeste 0 -- -- 57
2019-01-23 21:00:00 9.1 11 Noroeste 27 Noroeste 0 -- -- 51
2019-01-23 20:00:00 8.8 2 Norte 20 Este 0 -- -- 60
2019-01-23 19:00:00 9.3 12 Nordeste 28 Norte 0 -- -- 61
2019-01-23 18:00:00 10.4 15 Norte 32 Norte 0 -- -- 59
2019-01-23 17:00:00 11.5 12 Noroeste 30 Noroeste 0 -- -- 56
2019-01-23 16:00:00 12.1 14 Noroeste 35 Noroeste 0 -- -- 55
2019-01-23 15:00:00 12 8 Noroeste 26 Oeste 0 -- -- 56
2019-01-23 14:00:00 10.1 15 Noroeste 33 Noroeste 0 -- -- 58
2019-01-23 13:00:00 9.7 9 Noroeste 31 Noroeste 0 -- -- 62
2019-01-23 12:00:00 8.3 14 Noroeste 31 Oeste 0 -- -- 69
2019-01-23 11:00:00 7.1 14 Oeste 26 Oeste 0 -- -- 74
2019-01-23 10:00:00 6.5 2 Nordeste 31 Sudoeste 0 -- -- 78
2019-01-23 09:00:00 6.5 10 Noroeste 28 Noroeste 0 -- -- 72
2019-01-23 08:00:00 5.9 7 Oeste 30 Oeste 0 -- -- 73
2019-01-23 07:00:00 5.7 3 Sudeste 15 Sur 0 -- -- 75
2019-01-23 06:00:00 5.6 4 Oeste 27 Noroeste 0 -- -- 72
2019-01-23 05:00:00 5.9 11 Oeste 26 Noroeste 0 -- -- 68
2019-01-23 04:00:00 6.4 8 Noroeste 32 Norte 0 -- -- 68
2019-01-23 03:00:00 6.5 12 Noroeste 29 Noroeste 0 -- -- 67
2019-01-23 02:00:00 7.3 6 Noroeste 17 Noroeste 0 -- -- 64
2019-01-23 01:00:00 6.8 11 Norte 21 Norte 0 -- -- 65
2019-01-23 00:00:00 6.7 5 Norte 23 Norte 0 -- -- 64
2019-01-22 23:00:00 6.9 11 Norte 19 Norte 0 -- -- 64
2019-01-22 22:00:00 7.4 9 Noroeste 20 Noroeste 0 -- -- 66
2019-01-22 21:00:00 7.9 8 Noroeste 19 Noroeste 0 -- -- 66
2019-01-22 20:00:00 8.1 12 Noroeste 30 Sudoeste 0 -- -- 67
2019-01-22 19:00:00 8.6 13 Oeste 26 Oeste 0 -- -- 59
2019-01-22 18:00:00 8.9 12 Noroeste 25 Noroeste 0 -- -- 46
2019-01-22 17:00:00 9.4 13 Noroeste 21 Noroeste 0 -- -- 41
2019-01-22 16:00:00 9.6 10 Noroeste 17 Noroeste 0 -- -- 41
2019-01-22 15:00:00 9.8 6 Sur 14 Sur 0 -- -- 42
2019-01-22 14:00:00 9.9 7 Noroeste 20 Norte 0 -- -- 40
2019-01-22 13:00:00 8.5 11 Norte 27 Noroeste 0 -- -- 46
2019-01-22 12:00:00 7.6 12 Noroeste 23 Noroeste 0 -- -- 50
2019-01-22 11:00:00 6.7 8 Norte 23 Noroeste 0 -- -- 53
2019-01-22 10:00:00 5.6 8 Noroeste 16 Oeste 0 -- -- 57
2019-01-22 09:00:00 4.5 5 Norte 14 Norte 0 -- -- 61
2019-01-22 08:00:00 4.5 8 Noroeste 17 Norte 0 -- -- 61
2019-01-22 07:00:00 4.3 6 Norte 14 Norte 0 -- -- 62
2019-01-22 06:00:00 5.1 5 Noroeste 14 Noroeste 0 -- -- 63
2019-01-22 05:00:00 5.5 5 Norte 12 Norte 0 -- -- 63
2019-01-22 04:00:00 5.6 7 Norte 13 Noroeste 0 -- -- 65
2019-01-22 03:00:00 6.5 9 Norte 17 Norte 0 -- -- 65
2019-01-22 02:00:00 5.8 10 Norte 21 Este 0 -- -- 78
2019-01-22 01:00:00 6.4 9 Norte 16 Noroeste 0 -- -- 73
2019-01-22 00:00:00 7.2 9 Norte 16 Norte 0 -- -- 74
2019-01-21 23:00:00 7.5 9 Norte 14 Norte 0 -- -- 76
2019-01-21 22:00:00 8.2 8 Norte 12 Norte 0 -- -- 78
2019-01-21 21:00:00 9.4 5 Oeste 9 Oeste 0 -- -- 76
2019-01-21 20:00:00 9.6 5 Sudoeste 13 Sudoeste 0 -- -- 75
2019-01-21 19:00:00 9.7 2 Sudoeste 15 Sur 0 -- -- 72
2019-01-21 18:00:00 9.7 9 Sur 16 Sudoeste 0 -- -- 69
2019-01-21 17:00:00 10.1 11 Sur 16 Sur 0 -- -- 66
2019-01-21 16:00:00 11.5 7 Sur 13 Sudeste 0 -- -- 61
2019-01-21 15:00:00 11.7 6 Sudeste 16 Este 0 -- -- 60
2019-01-21 14:00:00 11.6 4 Este 17 Nordeste 0 -- -- 59
2019-01-21 13:00:00 10 9 Norte 20 Nordeste 0 -- -- 63
2019-01-21 12:00:00 9.4 8 Noroeste 20 Noroeste 0 -- -- 65
2019-01-21 11:00:00 7.9 8 Nordeste 17 Este 0 -- -- 72
2019-01-21 10:00:00 7 11 Este 22 Norte 0 -- -- 76
2019-01-21 09:00:00 6.9 5 Este 26 Norte 0 -- -- 74
2019-01-21 08:00:00 6.8 9 Noroeste 22 Noroeste 0 -- -- 75
2019-01-21 07:00:00 7.3 9 Noroeste 21 Noroeste 0 -- -- 75
2019-01-21 06:00:00 6.9 10 Noroeste 19 Noroeste 0 -- -- 78
2019-01-21 05:00:00 6.6 4 Norte 13 Nordeste 0 -- -- 80
2019-01-21 04:00:00 5.3 9 Norte 13 Nordeste 0 -- -- 88
2019-01-21 03:00:00 5.1 8 Norte 14 Norte 0 -- -- 89
2019-01-21 02:00:00 5.8 8 Norte 13 Norte 0 -- -- 87
2019-01-21 01:00:00 6.9 10 Norte 19 Norte 0 -- -- 83
2019-01-21 00:00:00 6.7 10 Norte 17 Norte 0 -- -- 85
2019-01-20 23:00:00 7.5 8 Norte 13 Nordeste 0 -- -- 80
2019-01-20 22:00:00 7.6 9 Nordeste 13 Nordeste 0 -- -- 80
2019-01-20 21:00:00 8.5 6 Norte 15 Nordeste 0 -- -- 76
2019-01-20 20:00:00 8.8 3 Noroeste 9 Nordeste 0 -- -- 77
2019-01-20 19:00:00 9.1 6 Nordeste 14 Nordeste 0 -- -- 75
2019-01-20 18:00:00 9.3 8 Norte 30 Este 0 -- -- 72
2019-01-20 17:00:00 9.6 21 Nordeste 42 Este 0 -- -- 71
2019-01-20 16:00:00 9.6 39 Este 49 Este 0 -- -- 77
2019-01-20 15:00:00 9.6 23 Este 40 Este 0.1 -- -- 76
2019-01-20 14:00:00 9.5 30 Este 45 Este 0 -- -- 72
2019-01-20 13:00:00 9 32 Este 44 Este 0.4 -- -- 79
2019-01-20 12:00:00 8.4 16 Nordeste 32 Nordeste 1.4 -- -- 94
2019-01-20 11:00:00 8.2 14 Nordeste 38 Este 3.1 -- -- 95
2019-01-20 10:00:00 9.3 28 Este 36 Este 3.4 -- -- 95
2019-01-20 09:00:00 8.1 8 Norte 24 Norte 5.5 -- -- 96
2019-01-20 08:00:00 7.7 9 Norte 18 Norte 1.6 -- -- 96
2019-01-20 07:00:00 7.5 11 Norte 18 Norte 1 -- -- 95
2019-01-20 06:00:00 7.7 8 Norte 17 Norte 0.7 -- -- 94
2019-01-20 05:00:00 7.4 10 Norte 17 Norte 0.1 -- -- 93
2019-01-20 04:00:00 7.1 11 Norte 21 Norte 0.1 -- -- 93
2019-01-20 03:00:00 6.8 10 Norte 18 Norte 0.8 -- -- 91
2019-01-20 02:00:00 7.7 8 Norte 13 Norte 0 -- -- 79
2019-01-20 01:00:00 7.8 8 Norte 11 Norte 0 -- -- 76
2019-01-20 00:00:00 7.7 9 Norte 12 Norte 0 -- -- 77
2019-01-19 23:00:00 7.8 6 Norte 11 Norte 0 -- -- 79
2019-01-19 22:00:00 8.4 4 Norte 7 Norte 0 -- -- 78
2019-01-19 21:00:00 9.3 4 Noroeste 8 Oeste 0 -- -- 76
2019-01-19 20:00:00 9.3 6 Oeste 14 Oeste 0 -- -- 76
2019-01-19 19:00:00 9.4 9 Oeste 16 Oeste 0 -- -- 75
2019-01-19 18:00:00 9.7 8 Sudoeste 15 Oeste 0 -- -- 73
2019-01-19 17:00:00 10.4 8 Sudoeste 14 Sudoeste 0 -- -- 70
2019-01-19 16:00:00 11.4 10 Sur 14 Sudeste 0 -- -- 66
2019-01-19 15:00:00 12.6 9 Sudeste 15 Sudeste 0 -- -- 62
2019-01-19 14:00:00 12.9 8 Sudeste 12 Sudeste 0 -- -- 60
2019-01-19 13:00:00 11.8 8 Este 15 Este 0 -- -- 65
2019-01-19 12:00:00 10.3 6 Norte 16 Norte 0 -- -- 65
2019-01-19 11:00:00 8.6 8 Norte 17 Norte 0 -- -- 69
2019-01-19 10:00:00 7.5 9 Norte 18 Norte 0 -- -- 72
2019-01-19 09:00:00 5.9 10 Norte 18 Norte 0 -- -- 77
2019-01-19 08:00:00 4.7 11 Norte 18 Norte 0 -- -- 79
2019-01-19 07:00:00 5.5 10 Norte 19 Norte 0 -- -- 77
2019-01-19 06:00:00 5.5 11 Norte 19 Norte 0 -- -- 76
2019-01-19 05:00:00 5.6 10 Norte 18 Noroeste 0 -- -- 75
2019-01-19 04:00:00 5.8 9 Norte 16 Norte 0 -- -- 75
2019-01-19 03:00:00 5.8 8 Norte 15 Norte 0 -- -- 73
2019-01-19 02:00:00 6.7 6 Norte 15 Nordeste 0 -- -- 70
2019-01-19 01:00:00 6.9 5 Norte 11 Noroeste 0 -- -- 69
2019-01-19 00:00:00 7.1 2 Noroeste 11 Oeste 0 -- -- 68